Regional Weather Roundup
Issued by NWS

Home | Current Version | Previous Version | Text Only | Print | Product List | Glossary On
Versions: 1 2 3 4 5 6 7 8 9 10 11 12 13 14 15 16 17 18 19 20 21 22 23 24 25 26 27 28 29 30 31 32 33 34 35 36 37 38 39 40 41 42 43 44 45 46 47 48 49 50
000
ASUS45 KTFX 252110
RWRMT
MONTANA REGIONAL WEATHER ROUNDUP
NATIONAL WEATHER SERVICE GREAT FALLS MT
300 PM MDT SUN SEP 25 2016

NOTE: "FAIR" INDICATES FEW OR NO CLOUDS BELOW 12000 FEET WITH NO
SIGNIFICANT WEATHER AND/OR OBSTRUCTIONS TO VISIBILITY.

MTZ001>007-043-252200-
WEST OF THE DIVIDE

CITY           SKY/WX    TMP DP  RH WIND       PRES   REMARKS
KALISPELL      CLOUDY    61  37  41 S12       30.41S
MISSOULA       MOSUNNY   61  39  44 CALM      30.44F
BUTTE          MOSUNNY   61  34  36 W6        30.44S
MULLAN PASS    CLOUDY    53  37  54 CALM      30.50R
ANACONDA         N/A     63  36  36 N12         N/A
DEER LODGE       N/A     61  34  36 N3        30.45F
EUREKA           N/A     63  37  39 E6        30.38F
HAMILTON         N/A     68  36  30 CALM      30.43F
LIBBY            N/A     64  41  42 NW7       30.38S
PLAINS           N/A     68  38  33 NW1       30.38F
RONAN            N/A     63  32  31 E7        30.44S
$$

MTZ008-052>055-252200-
SOUTHWEST MONTANA

CITY           SKY/WX    TMP DP  RH WIND       PRES   REMARKS
BOZEMAN        SUNNY     63  35  35 E5        30.40F
DILLON         MOSUNNY   65  33  30 SW5       30.42F
W YELLOWSTONE  SUNNY     57  30  35 SW15G22   30.48F
ENNIS          SUNNY     64  30  27 S8        30.47F
THREE FORKS      N/A     68 -14   3 S10       30.33F
TWIN BRIDGES     N/A     62  32  32 SE3       30.37F
$$

MTZ009-010-012-014-046-048-049-054-252200-
EAST SLOPES AND CENTRAL MONTANA

CITY           SKY/WX    TMP DP  RH WIND       PRES   REMARKS
CUT BANK       SUNNY     66  36  32 W16G28    30.26S
GREAT FALLS    SUNNY     67  33  28 SW21G28   30.27F
MALMSTROM AFB  SUNNY     66  34  30 W15G26    30.28F
HELENA         SUNNY     68  29  23 W16G23    30.38F
AUGUSTA          N/A     66  34  31 W18       30.30F
BOWMANS CRNR     N/A     66  34  31 SW15G25   30.30F
CHOTEAU          N/A     68  34  28 NW8       30.30S
CONRAD           N/A     68  41  37 SW15      30.27S
FAIRFIELD        N/A     67  35  31 W9        30.27F
POWER            N/A     66  32  27 W12G24    30.27F
RAYNESFORD       N/A     64  35  34 W16G25    30.30F
$$

MTZ011-013-016-021-045-047-050-051-252200-
NORTH CENTRAL MONTANA

CITY           SKY/WX    TMP DP  RH WIND       PRES   REMARKS
HAVRE          SUNNY     67  34  29 W21G28    30.25S
LEWISTOWN      SUNNY     61  35  37 W10       30.31F
N BAR RANCH      N/A     61  34  36 NW13G18   30.33F
CHINOOK          N/A     66  36  32 W12       30.24F
DENTON           N/A     63  33  32 W15       30.26F
GEYSER           N/A     66  34  31 W18       30.30F
GRASS RANGE      N/A     61  33  34 W17G23    30.27F
JUDITH GAP       N/A     61  35  38 NE6G14    30.31F
ROY              N/A     62  37  38 MISG      30.28F
STANFORD         N/A     63  35  34 NW14G22   30.30F
WINIFRED         N/A     61  33  35 MISG      30.29F
$$

MTZ017>020-022>027-061-062-252200-
NORTHEAST MONTANA

CITY           SKY/WX    TMP DP  RH WIND       PRES   REMARKS
GLASGOW        SUNNY     66  38  35 W21G28    30.24F
JORDAN           N/A     66  41  40 W14       30.26F
SIDNEY         PTSUNNY   67  37  33 W24G33    30.20F
WOLF POINT     SUNNY     68  36  30 W15G29    30.23F
PLENTYWOOD       N/A     63  28  27 NW23G37   30.18R
POPLAR           N/A     64  34  32 W17G29    30.21F
SCOBEY           N/A     64  30  28 W23       30.19F
$$

MTZ028>42-056>058-252200-
SOUTHCENTRAL AND SOUTHEAST MONTANA

CITY           SKY/WX    TMP DP  RH WIND       PRES   REMARKS
BAKER          SUNNY     62  36  37 NW23G32   30.28F
BILLINGS       MOSUNNY   65  36  34 SW8G29    30.31F
LIVINGSTON     SUNNY     67  31  26 W24G31    30.36F
MILES CITY     SUNNY     66  36  32 W16       30.28F
BIG TIMBER     SUNNY     64  30  27 W24G33    30.35F
EKALAKA          N/A     59  32  36 W17       30.25F
FORSYTH          N/A     64  37  36 W13       30.29F
HARLOWTON        N/A     63  34  33 W22G31    30.31F
LAUREL           N/A     66  34  30 S7        30.28F
ROUNDUP          N/A     65  34  31 SW12      30.19S
$$

REGIONAL REPORTS...DAKOTAS

CITY           SKY/WX    TMP DP  RH WIND       PRES   REMARKS
WILLISTON      SUNNY     64  32  30 NW28G37   30.19S
MINOT          MOSUNNY   63  34  33 W38G47    30.05R
DICKINSON      SUNNY     61  28  28 NW25G41   30.18S
CROSBY           N/A     61  30  31 NW25G36   30.16S
WATFORD CITY     N/A     61  32  33 NW25G33   30.18F
BISMARCK       MOSUNNY   65  33  30 NW24G39   30.12R
GRAND FORKS    LGT RAIN  55  49  80 NW24G36   29.85R
FARGO          LGT RAIN  58  45  62 NW33G40   29.91R
BUFFALO SD       N/A     63  34  33 NW29G39   30.20F
RAPID CITY     SUNNY     64  30  27 N24G33    30.30F
$$

REGIONAL REPORTS...WYOMING/IDAHO/WASHINGTON

CITY           SKY/WX    TMP DP  RH WIND       PRES   REMARKS
GILLETTE       SUNNY     59  33  37 NW8       30.36F
SHERIDAN       SUNNY     64  36  35 CALM      30.34F
BUFFALO WY     SUNNY     59  37  44 SE5       30.38F
CODY           SUNNY     61  39  44 E14       30.37S
YELLOWSTONE LA   N/A     54  29  38 W8        30.53R
IDAHO FALLS    SUNNY     62  36  37 SW8       30.48F
SALMON         PTSUNNY   63  34  34 NW3       30.44F
BOISE          SUNNY     72  34  24 NW7       30.42F
SPOKANE        MOSUNNY   72  37  28 SW13      30.39F
$$

REGIONAL REPORTS...ALBERTA

CITY           SKY/WX    TMP DP  RH WIND       PRES   REMARKS
EDMONTON       SUNNY     61  32  33 SW7       30.17F
CALGARY        MOSUNNY   64  34  32 S8        30.20F
LETHBRIDGE     MOSUNNY   68  37  32 W16G26    30.22S
MEDICINE HAT   SUNNY     66  34  30 SW8       30.21F
WATERTON GATE    N/A     63  37  39 W26G45      N/A
CARDSTON         N/A     64  39  39 W15G25      N/A
MILK RIVER       N/A     68  37  32 NW14G22     N/A
$$

REGIONAL REPORTS...SASKATCHEWAN

CITY           SKY/WX    TMP DP  RH WIND       PRES   REMARKS
SWIFT CURRENT  SUNNY     63  30  29 NW18G25   30.21S
REGINA         MOSUNNY   61  34  36 NW23G32   30.13F
SASKATOON      MOSUNNY   63  30  29 NW18G30   30.14F
CYPRESS HILLS    N/A     59  27  29 W6          N/A
VAL MARIE        N/A     64  34  32 W14G22      N/A
ROCKGLEN         N/A     61  30  31 NW20G29     N/A
ASSINIBOIA       N/A     63  30  29 W12G18      N/A
$$



USA.gov is the U.S. government's official web portal to all federal, state and local government web resources and services.